Weather History for Spokane Fairchild, WA

Change the Weather History Date:

Monday, August 26, 2013

  Actual Average Record
Temperature  
Mean Temperature 66 °F -  
Max Temperature 78 °F 78 °F 91 °F (2011)
Min Temperature 54 °F 53 °F 41 °F (2008)
Cooling Degree Days 1    
Growing Degree Days 16 (Base 50)    
Moisture  
Dew Point 51 °F    
Average Humidity 68    
Maximum Humidity 100    
Minimum Humidity 31    
Precipitation  
Precipitation 0.00 in - - ()
Sea Level Pressure  
Sea Level Pressure 29.95 in    
Wind  
Wind Speed 8 mph (South)    
Max Wind Speed 12 mph    
Max Gust Speed -    
Visibility 10 miles    
Events      
Averages and records for this station are not official NWS values.
T = Trace of Precipitation, MM = Missing Value Source: NWS Daily Summary

Daily Weather History Graph

Daily Weather History Graph

Search for Another Location

Airport:

Trip Planner

Search our weather history database for the weather conditions in past years. The results will help you decide how hot, cold, wet, or windy it might be!

Date:

Astronomy

Aug. 26, 2013 Rise Set
Actual Time 6:01 AM PDT 7:42 PM PDT
Civil Twilight 5:29 AM PDT 8:14 PM PDT
Nautical Twilight 4:49 AM PDT 8:53 PM PDT
Astronomical Twilight 4:05 AM PDT 9:37 PM PDT
Moon 10:25 PM PDT (8/26) 12:37 PM PDT (8/26)
Length of Visible Light 14h 45m
Length of Day
13h 40m
Waning Gibbous, 65% of the Moon is Illuminated
Aug 26
Waning Gibbous
Aug 28
Last Quarter
Sep 5
New
Sep 12
First Quarter
Sep 19
Full

Hourly Weather History & Observations

Time (PDT) Temp. Dew Point Humidity Pressure Visibility Wind Dir Wind Speed Gust Speed Precip Events Conditions
12:58 AM 58.3 °F 54.5 °F 87% 29.89 in 10.0 mi SSE 6.9 mph - N/A   Partly Cloudy
1:50 AM 57.2 °F 55.4 °F 94% 29.93 in 10.0 mi South 8.1 mph - N/A   Partly Cloudy
1:58 AM 56.7 °F 55.0 °F 94% 29.90 in 10.0 mi South 10.4 mph - N/A   Scattered Clouds
2:00 AM 57.2 °F 55.4 °F 94% 29.94 in 10.0 mi South 10.4 mph - N/A   Mostly Cloudy
2:32 AM 57.2 °F 55.4 °F 94% 29.94 in 10.0 mi South 8.1 mph - N/A   Overcast
2:58 AM 56.3 °F 55.2 °F 96% 29.92 in 10.0 mi South 9.2 mph - N/A   Overcast
3:04 AM 55.4 °F 55.4 °F 100% 29.95 in 10.0 mi South 5.8 mph - N/A   Overcast
3:58 AM 55.9 °F 55.0 °F 97% 29.94 in 10.0 mi SSE 6.9 mph - N/A   Mostly Cloudy
4:22 AM 55.4 °F 55.4 °F 100% 29.97 in 10.0 mi SE 6.9 mph - N/A   Scattered Clouds
4:58 AM 55.2 °F 54.7 °F 98% 29.96 in 10.0 mi SE 8.1 mph - N/A   Clear
5:58 AM 54.5 °F 53.2 °F 96% 29.96 in 10.0 mi SE 5.8 mph - N/A   Clear
6:58 AM 54.7 °F 53.1 °F 94% 29.98 in 10.0 mi ESE 5.8 mph - N/A   Clear
7:58 AM 59.5 °F 54.1 °F 82% 29.98 in 10.0 mi ESE 8.1 mph - N/A   Clear
8:58 AM 62.6 °F 54.5 °F 75% 30.00 in 10.0 mi SE 9.2 mph - N/A   Clear
9:58 AM 66.2 °F 53.2 °F 63% 30.00 in 10.0 mi ESE 6.9 mph - N/A   Partly Cloudy
10:58 AM 69.3 °F 52.9 °F 56% 29.99 in 10.0 mi Variable 5.8 mph - N/A   Clear
11:58 AM 70.3 °F 51.3 °F 51% 29.97 in 10.0 mi Variable 4.6 mph - N/A   Partly Cloudy
12:58 PM 70.3 °F 50.5 °F 49% 29.96 in 10.0 mi South 4.6 mph - N/A   Mostly Cloudy
1:57 PM 75.2 °F 48.2 °F 38% 29.97 in 10.0 mi SSW 6.9 mph - N/A   Light Drizzle
1:58 PM 74.5 °F 48.7 °F 40% 29.95 in 10.0 mi SW 5.8 mph - N/A   Light Drizzle
2:02 PM 75.2 °F 48.2 °F 38% 29.97 in 10.0 mi South 9.2 mph - N/A   Partly Cloudy
2:58 PM 76.5 °F 47.3 °F 36% 29.94 in 10.0 mi South 6.9 mph - 0.00 in   Scattered Clouds
3:58 PM 78.6 °F 45.9 °F 31% 29.92 in 10.0 mi South 11.5 mph - N/A   Mostly Cloudy
4:58 PM 76.1 °F 45.5 °F 34% 29.93 in 10.0 mi SSW 8.1 mph - N/A   Mostly Cloudy
5:58 PM 76.6 °F 45.5 °F 33% 29.92 in 10.0 mi South 8.1 mph - N/A   Mostly Cloudy
6:58 PM 74.3 °F 46.8 °F 37% 29.92 in 10.0 mi South 8.1 mph - N/A   Partly Cloudy
7:58 PM 68.4 °F 49.3 °F 50% 29.93 in 10.0 mi SW 6.9 mph - N/A   Clear
8:58 PM 65.8 °F 49.5 °F 55% 29.94 in 10.0 mi SW 6.9 mph - N/A   Clear
9:58 PM 63.1 °F 48.0 °F 58% 29.95 in 10.0 mi SW 8.1 mph - N/A   Clear
10:58 PM 60.4 °F 47.8 °F 63% 29.96 in 10.0 mi WSW 6.9 mph - N/A   Clear
11:58 PM 59.2 °F 47.3 °F 65% 29.97 in 10.0 mi WSW 5.8 mph - N/A   Clear